x

Western Caribbean - 195 Nm Wsw Of Negril Jamiaca (42057) Wave Buoy

9:50pm - Sun 26th Apr 2015 All times are UTC.

  • Sig Wave height 2.0ft
  • Swell Direction
  • Peak Period 7s
  • Average Period 4s
  • Wind
    11mph, 13mph gusts
  • Sea Temp 83°f
  • Air Temp 82°f
  • Sea Pressure 1009.8mb

More Historic Weather Station data

Upgrade to MSW Pro to gain access to the past 30 days of data for over 8000 Wavebouys and Weather Stations around the globe.

Join Pro

Comparision Forecast

View Surf forecast
   
Sun 04/26 9:50pm 2ft 7s 4s 11 13 mph 1009.8mb 83f 82f
8:50pm 2ft 8s 4s 9 11 mph 1010.1mb 83f 82f
7:50pm 1.6ft 7s 4s 9 11 mph 1010.6mb 83f 82f
6:50pm 2ft 6s 4s 11 13 mph 1011.5mb 83f 82f
5:50pm 2ft 6s 4s 13
mph
1012.1mb 82f 82f
4:50pm 2ft 6s 4s 11 13 mph 1012.8mb 82f 81f
3:50pm 2ft 8s 4s 11 16 mph 1012.9mb 82f 81f
2:50pm 2ft 7s 5s 13 16 mph 1012.7mb 82f 81f
1:50pm 1.6ft 7s 5s 11 13 mph 1012.6mb 82f 81f
12:50pm 1.3ft 7s 4s 9 11 mph 1012mb 82f 81f
11:50am 1.3ft 7s 5s 11
mph
1011.5mb 82f 81f
10:50am 1.6ft 7s 5s 11 13 mph 1011mb 82f 80f
9:50am 1.3ft 7s 4s 9 11 mph 1011.1mb 82f 80f
8:50am 1.6ft 7s 4s 11 13 mph 1011.2mb 82f 81f
7:50am 1.6ft 7s 5s 11 13 mph 1011.5mb 83f 81f
6:50am 2ft 7s 5s 11 13 mph 1011.9mb 83f 81f
5:50am 2ft 7s 5s 11 13 mph 1012.6mb 83f 81f
4:50am 1.6ft 7s 5s 9 11 mph 1013.3mb 83f 81f
3:50am 2ft 7s 5s 9 11 mph 1013.3mb 83f 81f
2:50am 2ft 7s 5s 7 9 mph 1012.8mb 83f 81f
1:50am 2.5ft 7s 5s 9
mph
1012.4mb 83f 81f
12:50am 2.5ft 7s 5s 9 11 mph 1012.1mb 82f 81f
Sat 04/25 11:50pm 2.5ft 7s 5s 7 9 mph 1012mb 83f 82f
10:50pm 2.5ft 7s 5s 7 9 mph 1011.5mb 83f 82f
9:50pm 2.5ft 6s 5s 4 7 mph 1011.2mb 84f 82f
8:50pm 2ft 8s 5s 7 9 mph 1011.4mb 83f 82f
7:50pm 2ft 7s 5s 9 11 mph 1012mb 83f 82f
6:50pm 2ft 8s 5s 7 9 mph 1012.6mb 83f 82f
5:50pm 2.5ft 7s 5s 9
mph
1013.3mb 83f 82f
4:50pm 2ft 7s 5s 9
mph
1013.8mb 82f 81f
3:50pm 2.5ft 7s 6s 9
mph
1014.3mb 83f 81f
2:50pm 2ft 6s 5s 9
mph
1014.3mb 82f 81f
1:50pm 2ft 7s 5s 7 9 mph 1014mb 82f 81f
12:50pm 2ft 7s 6s 9
mph
1013.3mb 82f 81f
11:50am 2ft 7s 6s 9
mph
1012.6mb 82f 80f
10:50am 1.6ft 7s 5s 7 9 mph 1012.4mb 82f 80f
9:50am 1.6ft 8s 5s 4 7 mph 1012.2mb 82f 80f
8:50am 2ft 8s 5s 4
mph
1012.4mb 82f 80f
7:50am 2ft 7s 5s 2 4 mph 1012.7mb 82f 80f
6:50am 2ft 7s 5s 2 4 mph 1013.3mb 82f 81f
5:50am 2ft 7s 5s 4
mph
1014.1mb 82f 81f
4:50am 2ft 8s 5s 4 7 mph 1014.3mb 82f 81f
3:50am 2ft 7s 5s 4 7 mph 1014.5mb 82f 81f
2:50am 2ft 7s 5s 7 9 mph 1014.4mb 83f 81f
1:50am 2.5ft 6s 5s 9
mph
1014mb 83f 81f
12:50am 2.5ft 8s 5s 9
mph
1013.4mb 83f 82f
Fri 04/24 11:50pm 2.5ft 8s 6s 7 9 mph 1013.1mb 83f 82f
10:50pm 2.5ft 8s 5s 7
mph
1012.8mb 83f 82f
9:50pm 2.5ft 8s 6s 7 9 mph 1012.4mb 83f 82f
8:50pm 2.5ft 8s 6s 9
mph
1012.5mb 84f 82f
7:50pm 2.5ft 8s 6s 9
mph
1013mb 84f 82f
6:50pm 2.5ft 8s 5s 7 9 mph 1013.7mb 84f 82f
5:50pm 2.5ft 8s 5s 7 9 mph 1014.4mb 83f 82f
4:50pm 2.5ft 8s 5s 7
mph
1014.8mb 83f 81f
3:50pm 2.5ft 7s 5s 7 9 mph 1015mb 83f 81f
2:50pm 2.5ft 8s 5s 9
mph
1015.1mb 83f 81f
1:50pm 2.5ft 8s 5s 9 11 mph 1014.8mb 83f 81f
12:50pm 2.5ft 8s 5s 11 13 mph 1014.5mb 82f 81f
11:50am 2.5ft 7s 5s 11 13 mph 1013.8mb 82f 81f
10:50am 3ft 7s 5s 9 11 mph 1013.2mb 82f 81f
9:50am 2.5ft 8s 5s 9 11 mph 1012.8mb 82f 81f
8:50am 3ft 8s 5s 7 9 mph 1012.5mb 83f 81f
7:50am 3ft 8s 5s 7 9 mph 1012.3mb 83f 81f
6:50am 3ft 7s 5s 7 9 mph 1013mb 83f 81f
5:50am 3ft 7s 5s 9 11 mph 1013.6mb 83f 81f
4:50am 3.5ft 8s 5s 9 11 mph 1013.9mb 83f 81f
3:50am 3.5ft 8s 6s 9 11 mph 1014.1mb 83f 81f
2:50am 4ft 8s 6s 9 11 mph 1013.7mb 83f 81f
1:50am 3.5ft 8s 6s 9 11 mph 1013.5mb 83f 81f
12:50am 3.5ft 8s 5s 7 9 mph 1012.8mb 83f 82f
Thu 04/23 11:50pm 3.5ft 8s 5s 11
mph
1012.3mb 83f 82f
10:50pm 3.5ft 8s 6s 9 11 mph 1012mb 83f 82f
9:50pm 3.5ft 8s 5s 11
mph
1011.9mb 83f 82f
8:50pm 4ft 8s 6s 11 13 mph 1012.1mb 83f 82f
7:50pm 3.5ft 9s 6s 11 13 mph 1012.5mb 83f 82f
6:50pm 4ft 8s 5s 11 13 mph 1013.2mb 83f 82f
5:50pm 3.5ft 8s 5s 11 13 mph 1013.9mb 83f 82f
4:50pm 3.5ft 8s 5s 9 11 mph 1014.7mb 82f 82f
3:50pm 4ft 8s 6s 11 13 mph 1014.8mb 82f 82f
2:50pm 3.5ft 8s 6s 11 13 mph 1014.8mb 82f 82f
1:50pm 3.5ft 9s 5s 11 13 mph 1014.8mb 82f 81f
12:50pm 3.5ft 8s 5s 11 13 mph 1014.2mb 82f 81f
11:50am 3.5ft 8s 5s 11 13 mph 1013.8mb 82f 81f
10:50am 3.5ft 8s 6s 11 13 mph 1013.4mb 82f 81f
9:50am 3.5ft 8s 6s 11 13 mph 1012.7mb 82f 81f
8:50am 3.5ft 8s 5s 9 11 mph 1012.1mb 82f 81f
7:50am 3.5ft 8s 5s 7 9 mph 1011.9mb 82f 81f
6:50am 3.5ft 8s 5s 9 11 mph 1012.3mb 82f 81f
5:50am 3.5ft 8s 5s 11 13 mph 1012.7mb 82f 81f
4:50am 3.5ft 8s 5s 11 13 mph 1013.2mb 82f 81f
3:50am 4.5ft 8s 5s 13 16 mph 1013.3mb 82f 81f
2:50am 4ft 6s 5s 13
mph
1013.5mb 82f 81f
1:50am 4ft 8s 5s 13 16 mph 1013.2mb 82f 82f
12:50am 3.5ft 7s 5s 13 16 mph 1012.8mb 82f 82f
Wed 04/22 11:50pm 4ft 8s 5s 13 16 mph 1012.4mb 83f 82f